| time (UTC) | temp F | wind direction | speed MPH | gust MPH | rain 1hr in | rain 24hr in | rain mn in | humidity % | barometer mb |
| 20260509155800 | 78 | 175 | 0.0 | 1.0 | 0.00 | 0.01 | 0.01 | 53 | 1011.7 |
| 20260509155257 | 77 | 172 | 0.0 | 1.0 | 0.00 | 0.01 | 0.01 | 51 | 1011.9 |
| 20260509154753 | 76 | 50 | 1.0 | 2.0 | 0.00 | 0.01 | 0.01 | 57 | 1011.9 |
| 20260509154250 | 77 | 170 | 0.0 | 3.0 | 0.00 | 0.01 | 0.01 | 53 | 1012.1 |
| 20260509153747 | 76 | 206 | 0.0 | 3.0 | 0.00 | 0.01 | 0.01 | 53 | 1011.7 |
| 20260509153243 | 76 | 171 | 1.0 | 2.0 | 0.00 | 0.01 | 0.01 | 54 | 1011.9 |
| 20260509152740 | 76 | 180 | 1.0 | 2.0 | 0.00 | 0.01 | 0.01 | 60 | 1011.7 |
| 20260509152236 | 75 | 148 | 1.0 | 2.0 | 0.00 | 0.01 | 0.01 | 57 | 1011.9 |
| 20260509151733 | 75 | 168 | 0.0 | 3.0 | 0.00 | 0.01 | 0.01 | 60 | 1012.0 |
| 20260509151230 | 75 | 134 | 0.0 | 0.0 | 0.00 | 0.01 | 0.01 | 60 | 1012.1 |
| 20260509150728 | 73 | 161 | 0.0 | 3.0 | 0.00 | 0.01 | 0.01 | 65 | 1012.2 |
| 20260509150226 | 72 | 144 | 0.0 | 1.0 | 0.00 | 0.01 | 0.01 | 62 | 1012.0 |
| 20260509145723 | 71 | 177 | 0.0 | 2.0 | 0.00 | 0.01 | 0.01 | 65 | 1012.1 |
| 20260509145217 | 71 | 125 | 1.0 | 3.0 | 0.00 | 0.01 | 0.01 | 62 | 1012.0 |
| 20260509144714 | 72 | 193 | 1.0 | 3.0 | 0.05 | 0.01 | 0.01 | 66 | 1011.9 |
| 20260509144211 | 72 | 302 | 3.0 | 3.0 | 0.05 | 0.01 | 0.01 | 62 | 1011.7 |
| 20260509143708 | 71 | 194 | 0.0 | 2.0 | 0.00 | 0.00 | 0.00 | 65 | 1011.6 |
| 20260509143205 | 71 | 151 | 0.0 | 1.0 | 0.00 | 0.00 | 0.00 | 66 | 1012.0 |
| 20260509142701 | 71 | 158 | 0.0 | 1.0 | 0.00 | 0.00 | 0.00 | 67 | 1011.9 |
| 20260509142158 | 71 | 174 | 0.0 | 1.0 | 0.00 | 0.00 | 0.00 | 68 | 1011.6 |
| 20260509141653 | 71 | 147 | 1.0 | 3.0 | 0.00 | 0.00 | 0.00 | 68 | 1011.7 |
| 20260509141150 | 70 | 156 | 0.0 | 2.0 | 0.00 | 0.00 | 0.00 | 72 | 1011.3 |
| 20260509140647 | 70 | 167 | 0.0 | 1.0 | 0.00 | 0.00 | 0.00 | 74 | 1011.7 |
| 20260509140145 | 68 | 162 | 0.0 | 2.0 | 0.00 | 0.00 | 0.00 | 75 | 1011.6 |
| 20260509135642 | 68 | 158 | 1.0 | 1.0 | 0.00 | 0.00 | 0.00 | 75 | 1011.2 |
| 20260509135140 | 68 | 115 | 3.0 | 3.0 | 0.00 | 0.00 | 0.00 | 77 | 1011.4 |
| 20260509134636 | 67 | 155 | 0.0 | 1.0 | 0.00 | 0.00 | 0.00 | 81 | 1011.5 |
| 20260509134134 | 66 | 28 | 2.0 | 3.0 | 0.00 | 0.00 | 0.00 | 80 | 1011.6 |
| 20260509133631 | 65 | 158 | 0.0 | 1.0 | 0.00 | 0.00 | 0.00 | 83 | 1011.4 |
| 20260509133128 | 64 | 190 | 0.0 | 1.0 | 0.00 | 0.00 | 0.00 | 85 | 1011.6 |
| 20260509132626 | 64 | 162 | 2.0 | 5.0 | 0.00 | 0.00 | 0.00 | 86 | 1011.5 |
| 20260509132124 | 64 | 325 | 0.0 | 1.0 | 0.00 | 0.00 | 0.00 | 87 | 1011.3 |
| 20260509131620 | 63 | 209 | 0.0 | 2.0 | 0.00 | 0.00 | 0.00 | 89 | 1011.1 |
| 20260509131117 | 62 | 139 | 0.0 | 1.0 | 0.00 | 0.00 | 0.00 | 90 | 1011.5 |
| 20260509130613 | 62 | 159 | 2.0 | 3.0 | 0.00 | 0.00 | 0.00 | 90 | 1011.2 |
| 20260509130110 | 62 | 173 | 0.0 | 0.0 | 0.00 | 0.00 | 0.00 | 91 | 1011.3 |
| 20260509125606 | 61 | 176 | 0.0 | 0.0 | 0.00 | 0.00 | 0.00 | 92 | 1011.4 |
| 20260509125103 | 60 | 149 | 0.0 | 0.0 | 0.00 | 0.00 | 0.00 | 93 | 1011.5 |
| 20260509124559 | 60 | 178 | 0.0 | 0.0 | 0.00 | 0.00 | 0.00 | 94 | 1011.5 |
| 20260509124057 | 59 | 208 | 0.0 | 0.0 | 0.00 | 0.00 | 0.00 | 95 | 1011.3 |
| 20260509123555 | 59 | 176 | 0.0 | 1.0 | 0.00 | 0.00 | 0.00 | 96 | 1011.3 |
| 20260509123051 | 58 | 289 | 0.0 | 0.0 | 0.00 | 0.00 | 0.00 | 96 | 1011.2 |
| 20260509122547 | 58 | 175 | 0.0 | 1.0 | 0.00 | 0.00 | 0.00 | 97 | 1011.4 |
| 20260509122044 | 57 | 197 | 0.0 | 1.0 | 0.00 | 0.00 | 0.00 | 97 | 1011.0 |
| 20260509121540 | 57 | 156 | 0.0 | 0.0 | 0.00 | 0.00 | 0.00 | 97 | 1011.2 |
| 20260509121038 | 56 | 156 | 0.0 | 0.0 | 0.00 | 0.00 | 0.00 | 97 | 1011.0 |
| 20260509120536 | 56 | 165 | 0.0 | 0.0 | 0.00 | 0.00 | 0.00 | 97 | 1011.2 |
| 20260509120034 | 55 | 161 | 0.0 | 0.0 | 0.00 | 0.00 | 0.00 | 97 | 1011.1 |
| 20260509115531 | 55 | 183 | 0.0 | 1.0 | 0.00 | 0.00 | 0.00 | 97 | 1011.0 |
| 20260509115029 | 55 | 161 | 0.0 | 0.0 | 0.00 | 0.00 | 0.00 | 97 | 1011.0 |
| 20260509114527 | 54 | 160 | 0.0 | 0.0 | 0.00 | 0.00 | 0.00 | 97 | 1010.9 |
| 20260509114026 | 54 | 161 | 0.0 | 0.0 | 0.00 | 0.00 | 0.00 | 97 | 1010.7 |
| 20260509113523 | 54 | 161 | 0.0 | 0.0 | 0.00 | 0.00 | 0.00 | 97 | 1010.7 |
| 20260509113021 | 54 | 163 | 0.0 | 0.0 | 0.00 | 0.00 | 0.00 | 97 | 1010.5 |
| 20260509112517 | 54 | 155 | 0.0 | 0.0 | 0.00 | 0.00 | 0.00 | 97 | 1010.7 |
| 20260509112014 | 54 | 196 | 0.0 | 0.0 | 0.00 | 0.00 | 0.00 | 97 | 1010.6 |
| 20260509111511 | 54 | 167 | 0.0 | 0.0 | 0.00 | 0.00 | 0.00 | 97 | 1010.5 |
| 20260509111008 | 53 | 158 | 0.0 | 0.0 | 0.00 | 0.00 | 0.00 | 97 | 1010.5 |
| 20260509110505 | 54 | 153 | 0.0 | 0.0 | 0.00 | 0.00 | 0.00 | 97 | 1010.8 |
| 20260509110002 | 54 | 154 | 0.0 | 0.0 | 0.00 | 0.00 | 0.00 | 97 | 1010.5 |
| 20260509105500 | 54 | 143 | 0.0 | 0.0 | 0.00 | 0.00 | 0.00 | 97 | 1010.7 |
| 20260509104958 | 54 | 200 | 0.0 | 0.0 | 0.00 | 0.00 | 0.00 | 97 | 1010.7 |
| 20260509104454 | 53 | 170 | 0.0 | 0.0 | 0.00 | 0.00 | 0.00 | 97 | 1010.7 |
| 20260509103952 | 53 | 157 | 0.0 | 0.0 | 0.00 | 0.00 | 0.00 | 97 | 1010.5 |
| 20260509103449 | 54 | 161 | 0.0 | 0.0 | 0.00 | 0.00 | 0.00 | 97 | 1010.6 |
| 20260509102947 | 54 | 172 | 0.0 | 0.0 | 0.00 | 0.00 | 0.00 | 97 | 1010.6 |
| 20260509102444 | 54 | 156 | 0.0 | 0.0 | 0.00 | 0.00 | 0.00 | 97 | 1010.7 |
| 20260509101940 | 53 | 157 | 0.0 | 0.0 | 0.00 | 0.00 | 0.00 | 97 | 1010.6 |
| 20260509101436 | 53 | 163 | 0.0 | 0.0 | 0.00 | 0.00 | 0.00 | 97 | 1010.6 |
| 20260509100934 | 53 | 156 | 0.0 | 0.0 | 0.00 | 0.00 | 0.00 | 97 | 1010.6 |
| 20260509100431 | 53 | 146 | 0.0 | 0.0 | 0.00 | 0.00 | 0.00 | 97 | 1010.6 |
| 20260509095927 | 54 | 155 | 0.0 | 0.0 | 0.00 | 0.00 | 0.00 | 97 | 1010.7 |
| 20260509095425 | 54 | 177 | 0.0 | 0.0 | 0.00 | 0.00 | 0.00 | 97 | 1010.6 |
| 20260509094922 | 54 | 161 | 0.0 | 0.0 | 0.00 | 0.00 | 0.00 | 98 | 1010.6 |
| 20260509094418 | 54 | 181 | 0.0 | 0.0 | 0.00 | 0.00 | 0.00 | 98 | 1010.7 |
| 20260509093916 | 54 | 167 | 0.0 | 0.0 | 0.00 | 0.00 | 0.00 | 98 | 1010.6 |
| 20260509093413 | 53 | 178 | 0.0 | 0.0 | 0.00 | 0.00 | 0.00 | 97 | 1010.7 |
| 20260509092912 | 54 | 174 | 0.0 | 0.0 | 0.00 | 0.00 | 0.00 | 97 | 1010.9 |
| 20260509092409 | 55 | 170 | 0.0 | 0.0 | 0.00 | 0.00 | 0.00 | 97 | 1010.7 |
| 20260509091907 | 55 | 189 | 0.0 | 0.0 | 0.00 | 0.00 | 0.00 | 97 | 1010.7 |
| 20260509091404 | 55 | 177 | 0.0 | 0.0 | 0.00 | 0.00 | 0.00 | 97 | 1010.7 |
| 20260509090901 | 55 | 172 | 0.0 | 0.0 | 0.00 | 0.00 | 0.00 | 97 | 1010.7 |
| 20260509090358 | 55 | 170 | 0.0 | 0.0 | 0.00 | 0.00 | 0.00 | 97 | 1010.6 |
| 20260509085856 | 55 | 159 | 0.0 | 0.0 | 0.00 | 0.00 | 0.00 | 97 | 1010.5 |
| 20260509085353 | 55 | 159 | 0.0 | 0.0 | 0.00 | 0.00 | 0.00 | 96 | 1010.5 |
| 20260509084849 | 56 | 159 | 0.0 | 0.0 | 0.00 | 0.00 | 0.00 | 96 | 1010.5 |
| 20260509084346 | 56 | 154 | 0.0 | 0.0 | 0.00 | 0.00 | 0.00 | 97 | 1010.5 |
| 20260509083844 | 56 | 174 | 0.0 | 0.0 | 0.00 | 0.00 | 0.00 | 97 | 1010.5 |
| 20260509083340 | 56 | 154 | 0.0 | 1.0 | 0.00 | 0.00 | 0.00 | 97 | 1010.6 |
| 20260509082837 | 56 | 162 | 0.0 | 0.0 | 0.00 | 0.00 | 0.00 | 97 | 1010.4 |
| 20260509082333 | 56 | 165 | 0.0 | 0.0 | 0.00 | 0.00 | 0.00 | 97 | 1010.4 |
| 20260509081831 | 56 | 158 | 0.0 | 0.0 | 0.00 | 0.00 | 0.00 | 97 | 1010.3 |
| 20260509081328 | 55 | 157 | 0.0 | 0.0 | 0.00 | 0.00 | 0.00 | 97 | 1010.3 |
| 20260509080826 | 56 | 167 | 0.0 | 0.0 | 0.00 | 0.00 | 0.00 | 97 | 1010.5 |
| 20260509080324 | 55 | 162 | 0.0 | 0.0 | 0.00 | 0.00 | 0.00 | 97 | 1010.6 |
| 20260509075822 | 55 | 167 | 0.0 | 0.0 | 0.00 | 0.00 | 0.00 | 97 | 1010.4 |
| 20260509075318 | 55 | 150 | 0.0 | 0.0 | 0.00 | 0.00 | 0.00 | 97 | 1010.5 |
| 20260509074815 | 55 | 159 | 0.0 | 0.0 | 0.00 | 0.00 | 0.00 | 97 | 1010.5 |
| 20260509074313 | 55 | 159 | 0.0 | 0.0 | 0.00 | 0.00 | 0.00 | 97 | 1010.6 |
| 20260509073809 | 55 | 161 | 0.0 | 0.0 | 0.00 | 0.00 | 0.00 | 97 | 1010.5 |
| 20260509073306 | 54 | 158 | 0.0 | 0.0 | 0.00 | 0.00 | 0.00 | 97 | 1010.5 |
| 20260509072803 | 53 | 162 | 0.0 | 0.0 | 0.00 | 0.00 | 0.00 | 97 | 1010.6 |
| 20260509072259 | 54 | 163 | 0.0 | 0.0 | 0.00 | 0.00 | 0.00 | 97 | 1010.7 |
| 20260509071756 | 54 | 164 | 0.0 | 0.0 | 0.00 | 0.00 | 0.00 | 97 | 1010.5 |
| 20260509071253 | 55 | 167 | 0.0 | 0.0 | 0.00 | 0.00 | 0.00 | 97 | 1010.4 |
| 20260509070750 | 54 | 174 | 0.0 | 0.0 | 0.00 | 0.00 | 0.00 | 97 | 1010.4 |
| 20260509070246 | 53 | 158 | 0.0 | 0.0 | 0.00 | 0.00 | 0.00 | 97 | 1010.6 |
| 20260509065743 | 53 | 157 | 0.0 | 0.0 | 0.00 | 0.00 | 0.00 | 97 | 1010.5 |
| 20260509065239 | 54 | 157 | 0.0 | 0.0 | 0.00 | 0.00 | 0.00 | 97 | 1010.5 |
| 20260509064735 | 54 | 157 | 0.0 | 0.0 | 0.00 | 0.00 | 0.00 | 97 | 1010.4 |
| 20260509064233 | 54 | 157 | 0.0 | 0.0 | 0.00 | 0.00 | 0.00 | 97 | 1010.8 |
| 20260509063730 | 55 | 157 | 0.0 | 0.0 | 0.00 | 0.00 | 0.00 | 97 | 1010.7 |
| 20260509063226 | 54 | 157 | 0.0 | 0.0 | 0.00 | 0.00 | 0.00 | 97 | 1010.7 |
| 20260509062724 | 54 | 158 | 0.0 | 0.0 | 0.00 | 0.00 | 0.00 | 97 | 1010.6 |
| 20260509062221 | 54 | 158 | 0.0 | 0.0 | 0.00 | 0.00 | 0.00 | 97 | 1010.7 |
| 20260509061718 | 54 | 158 | 0.0 | 0.0 | 0.00 | 0.00 | 0.00 | 97 | 1010.5 |
| 20260509061216 | 55 | 158 | 0.0 | 0.0 | 0.00 | 0.00 | 0.00 | 97 | 1010.5 |
| 20260509060713 | 55 | 157 | 0.0 | 0.0 | 0.00 | 0.00 | 0.00 | 97 | 1010.8 |
| 20260509060209 | 55 | 158 | 0.0 | 0.0 | 0.00 | 0.00 | 0.00 | 97 | 1010.6 |
| 20260509055704 | 56 | 158 | 0.0 | 0.0 | 0.00 | 0.00 | 0.00 | 97 | 1010.7 |
| 20260509055201 | 56 | 157 | 0.0 | 0.0 | 0.00 | 0.00 | 0.00 | 97 | 1010.8 |
| 20260509054657 | 56 | 157 | 0.0 | 0.0 | 0.00 | 0.00 | 0.00 | 97 | 1010.9 |
| 20260509054155 | 56 | 158 | 0.0 | 0.0 | 0.00 | 0.00 | 0.00 | 96 | 1010.7 |
| 20260509053653 | 57 | 158 | 0.0 | 0.0 | 0.00 | 0.00 | 0.00 | 96 | 1010.8 |
| 20260509053150 | 57 | 157 | 0.0 | 0.0 | 0.00 | 0.00 | 0.00 | 96 | 1011.1 |
| 20260509052648 | 57 | 158 | 0.0 | 0.0 | 0.00 | 0.00 | 0.00 | 96 | 1010.9 |
| 20260509052145 | 57 | 158 | 0.0 | 0.0 | 0.00 | 0.00 | 0.00 | 95 | 1010.8 |
| 20260509051643 | 58 | 158 | 0.0 | 0.0 | 0.00 | 0.00 | 0.00 | 95 | 1010.8 |
| 20260509051140 | 58 | 173 | 0.0 | 0.0 | 0.00 | 0.00 | 0.00 | 95 | 1010.7 |
| 20260509050637 | 58 | 178 | 0.0 | 0.0 | 0.00 | 0.00 | 0.00 | 95 | 1010.8 |
| 20260509050133 | 58 | 177 | 0.0 | 0.0 | 0.00 | 0.00 | 0.00 | 95 | 1010.8 |
| 20260509045631 | 58 | 175 | 0.0 | 0.0 | 0.00 | 0.01 | 0.01 | 95 | 1010.7 |
| 20260509045127 | 58 | 178 | 0.0 | 0.0 | 0.00 | 0.01 | 0.01 | 94 | 1010.6 |
| 20260509044625 | 59 | 177 | 0.0 | 0.0 | 0.00 | 0.01 | 0.01 | 93 | 1010.7 |
| 20260509044122 | 59 | 179 | 0.0 | 0.0 | 0.00 | 0.01 | 0.01 | 93 | 1010.6 |
| 20260509043618 | 59 | 176 | 0.0 | 0.0 | 0.00 | 0.01 | 0.01 | 93 | 1010.6 |
| 20260509043114 | 60 | 197 | 0.0 | 0.0 | 0.00 | 0.01 | 0.01 | 92 | 1010.8 |
| 20260509042611 | 60 | 195 | 0.0 | 0.0 | 0.00 | 0.01 | 0.01 | 92 | 1010.7 |
| 20260509042106 | 60 | 171 | 0.0 | 0.0 | 0.00 | 0.01 | 0.01 | 92 | 1010.8 |
| 20260509041603 | 60 | 170 | 0.0 | 0.0 | 0.00 | 0.01 | 0.01 | 91 | 1010.8 |
| 20260509041101 | 60 | 173 | 0.0 | 1.0 | 0.00 | 0.01 | 0.01 | 91 | 1010.9 |
| 20260509040600 | 60 | 183 | 0.0 | 0.0 | 0.00 | 0.01 | 0.01 | 91 | 1010.8 |
| 20260509040056 | 61 | 184 | 0.0 | 1.0 | 0.00 | 0.01 | 0.01 | 90 | 1010.8 |
| 20260509035553 | 61 | 160 | 0.0 | 0.0 | 0.00 | 0.01 | 0.01 | 89 | 1010.5 |
| 20260509035049 | 61 | 153 | 0.0 | 0.0 | 0.00 | 0.01 | 0.01 | 89 | 1010.5 |
| 20260509034548 | 62 | 152 | 0.0 | 0.0 | 0.00 | 0.01 | 0.01 | 89 | 1010.6 |
| 20260509034044 | 62 | 135 | 0.0 | 0.0 | 0.00 | 0.01 | 0.01 | 89 | 1010.5 |
| 20260509033541 | 62 | 40 | 0.0 | 1.0 | 0.00 | 0.01 | 0.01 | 88 | 1010.7 |
| 20260509033038 | 62 | 139 | 0.0 | 0.0 | 0.00 | 0.01 | 0.01 | 88 | 1010.7 |
| 20260509032536 | 62 | 106 | 0.0 | 0.0 | 0.00 | 0.01 | 0.01 | 88 | 1010.7 |
| 20260509032032 | 62 | 82 | 0.0 | 0.0 | 0.00 | 0.01 | 0.01 | 87 | 1010.7 |
| 20260509031530 | 62 | 358 | 0.0 | 2.0 | 0.00 | 0.01 | 0.01 | 87 | 1010.8 |
| 20260509031027 | 63 | 108 | 0.0 | 0.0 | 0.00 | 0.01 | 0.01 | 86 | 1010.5 |
| 20260509030525 | 63 | 105 | 0.0 | 2.0 | 0.00 | 0.01 | 0.01 | 84 | 1010.8 |
| 20260509030022 | 63 | 157 | 0.0 | 1.0 | 0.00 | 0.01 | 0.01 | 83 | 1010.4 |
| 20260509025518 | 64 | 20 | 1.0 | 3.0 | 0.00 | 0.01 | 0.01 | 80 | 1010.3 |
| 20260509025013 | 64 | 345 | 0.0 | 2.0 | 0.00 | 0.01 | 0.01 | 78 | 1010.3 |
| 20260509024509 | 64 | 177 | 0.0 | 1.0 | 0.00 | 0.01 | 0.01 | 77 | 1010.2 |
| 20260509024006 | 64 | 156 | 0.0 | 1.0 | 0.00 | 0.01 | 0.01 | 76 | 1009.8 |
| 20260509023504 | 65 | 158 | 0.0 | 0.0 | 0.00 | 0.01 | 0.01 | 75 | 1009.7 |
| 20260509023001 | 65 | 97 | 0.0 | 1.0 | 0.00 | 0.01 | 0.01 | 74 | 1009.5 |
| 20260509022457 | 65 | 194 | 0.0 | 1.0 | 0.00 | 0.01 | 0.01 | 73 | 1009.6 |
| 20260509021955 | 65 | 155 | 0.0 | 1.0 | 0.00 | 0.01 | 0.01 | 73 | 1009.3 |
| 20260509021452 | 66 | 108 | 0.0 | 1.0 | 0.00 | 0.01 | 0.01 | 72 | 1008.9 |
| 20260509020948 | 66 | 210 | 0.0 | 3.0 | 0.00 | 0.01 | 0.01 | 70 | 1008.6 |
| 20260509020447 | 66 | 163 | 1.0 | 3.0 | 0.00 | 0.01 | 0.01 | 70 | 1008.1 |
| 20260509015943 | 66 | 180 | 0.0 | 1.0 | 0.00 | 0.01 | 0.01 | 71 | 1008.2 |
| 20260509015443 | 65 | 187 | 0.0 | 3.0 | 0.00 | 0.01 | 0.01 | 71 | 1007.9 |
| 20260509014939 | 65 | 197 | 4.0 | 6.0 | 0.00 | 0.01 | 0.01 | 72 | 1008.1 |
| 20260509014436 | 65 | 188 | 0.0 | 1.0 | 0.00 | 0.01 | 0.01 | 73 | 1007.7 |
| 20260509013932 | 65 | 172 | 0.0 | 1.0 | 0.00 | 0.01 | 0.01 | 73 | 1007.9 |
| 20260509013429 | 65 | 195 | 0.0 | 1.0 | 0.00 | 0.01 | 0.01 | 74 | 1007.7 |
| 20260509012924 | 65 | 200 | 0.0 | 1.0 | 0.00 | 0.01 | 0.01 | 74 | 1007.5 |
| 20260509012421 | 64 | 171 | 0.0 | 1.0 | 0.00 | 0.01 | 0.01 | 74 | 1007.6 |
| 20260509011918 | 64 | 182 | 0.0 | 0.0 | 0.00 | 0.01 | 0.01 | 75 | 1007.5 |
| 20260509011416 | 64 | 174 | 0.0 | 1.0 | 0.00 | 0.01 | 0.01 | 76 | 1007.3 |
| 20260509010914 | 64 | 207 | 0.0 | 1.0 | 0.00 | 0.01 | 0.01 | 78 | 1007.3 |
| 20260509010411 | 64 | 185 | 0.0 | 1.0 | 0.00 | 0.01 | 0.01 | 79 | 1006.9 |
| 20260509005907 | 64 | 167 | 0.0 | 0.0 | 0.00 | 0.01 | 0.01 | 80 | 1007.5 |
| 20260509005406 | 64 | 171 | 0.0 | 0.0 | 0.00 | 0.01 | 0.01 | 81 | 1007.6 |
| 20260509004905 | 64 | 181 | 0.0 | 1.0 | 0.00 | 0.01 | 0.01 | 80 | 1007.6 |
| 20260509004402 | 64 | 181 | 0.0 | 1.0 | 0.00 | 0.01 | 0.01 | 80 | 1007.8 |
| 20260509003900 | 64 | 187 | 0.0 | 1.0 | 0.00 | 0.01 | 0.01 | 81 | 1007.6 |
| 20260509003357 | 64 | 167 | 0.0 | 1.0 | 0.00 | 0.01 | 0.01 | 82 | 1007.8 |
| 20260509002854 | 64 | 179 | 0.0 | 0.0 | 0.00 | 0.01 | 0.01 | 81 | 1007.4 |
| 20260509002352 | 64 | 187 | 0.0 | 1.0 | 0.00 | 0.01 | 0.01 | 80 | 1007.7 |
| 20260509001849 | 64 | 175 | 0.0 | 1.0 | 0.00 | 0.01 | 0.01 | 80 | 1007.7 |
| 20260509001345 | 64 | 176 | 0.0 | 1.0 | 0.00 | 0.01 | 0.01 | 79 | 1007.6 |
| 20260509000843 | 64 | 180 | 0.0 | 0.0 | 0.00 | 0.01 | 0.01 | 78 | 1007.7 |
| 20260509000340 | 64 | 179 | 0.0 | 0.0 | 0.00 | 0.01 | 0.01 | 77 | 1007.6 |
| 20260508235836 | 64 | 169 | 0.0 | 0.0 | 0.00 | 0.01 | 0.01 | 77 | 1007.3 |
| 20260508235333 | 64 | 174 | 0.0 | 0.0 | 0.00 | 0.01 | 0.01 | 76 | 1007.3 |
| 20260508234831 | 65 | 175 | 0.0 | 1.0 | 0.00 | 0.01 | 0.01 | 76 | 1007.7 |
| 20260508234327 | 65 | 190 | 1.0 | 3.0 | 0.00 | 0.01 | 0.01 | 75 | 1007.8 |
| 20260508233825 | 65 | 170 | 1.0 | 2.0 | 0.00 | 0.01 | 0.01 | 73 | 1008.0 |
| 20260508233325 | 65 | 186 | 0.0 | 1.0 | 0.00 | 0.01 | 0.01 | 72 | 1008.3 |
| 20260508232821 | 65 | 188 | 0.0 | 1.0 | 0.00 | 0.01 | 0.01 | 71 | 1008.4 |
| 20260508232317 | 65 | 185 | 1.0 | 1.0 | 0.07 | 0.01 | 0.01 | 72 | 1008.7 |
| 20260508231816 | 66 | 184 | 0.0 | 0.0 | 0.07 | 0.01 | 0.01 | 70 | 1009.4 |
| 20260508231312 | 67 | 189 | 0.0 | 6.0 | 0.00 | 0.00 | 0.00 | 67 | 1009.8 |
| 20260508230809 | 70 | 181 | 6.0 | 13.0 | 0.00 | 0.00 | 0.00 | 61 | 1010.1 |
| 20260508230305 | 71 | 156 | 1.0 | 3.0 | 0.00 | 0.00 | 0.00 | 55 | 1009.7 |
| 20260508225803 | 71 | 173 | 0.0 | 0.0 | 0.00 | 0.00 | 0.00 | 55 | 1009.5 |
| 20260508225259 | 72 | 191 | 0.0 | 0.0 | 0.00 | 0.00 | 0.00 | 53 | 1009.4 |
| 20260508224757 | 73 | 160 | 0.0 | 0.0 | 0.00 | 0.00 | 0.00 | 51 | 1009.3 |
| 20260508224254 | 73 | 144 | 0.0 | 0.0 | 0.00 | 0.00 | 0.00 | 49 | 1009.4 |
| 20260508223752 | 73 | 177 | 0.0 | 1.0 | 0.00 | 0.00 | 0.00 | 50 | 1009.2 |
| 20260508223249 | 74 | 175 | 0.0 | 1.0 | 0.00 | 0.00 | 0.00 | 48 | 1009.3 |
| 20260508222746 | 74 | 312 | 0.0 | 3.0 | 0.00 | 0.00 | 0.00 | 46 | 1008.8 |
| 20260508222244 | 74 | 183 | 0.0 | 0.0 | 0.00 | 0.00 | 0.00 | 47 | 1008.7 |
| 20260508221740 | 75 | 181 | 0.0 | 1.0 | 0.00 | 0.00 | 0.00 | 46 | 1008.7 |
| 20260508221236 | 74 | 192 | 1.0 | 2.0 | 0.00 | 0.00 | 0.00 | 47 | 1008.8 |
| 20260508220732 | 74 | 202 | 1.0 | 3.0 | 0.00 | 0.00 | 0.00 | 46 | 1008.8 |
| 20260508220229 | 74 | 134 | 0.0 | 3.0 | 0.00 | 0.00 | 0.00 | 45 | 1008.6 |
| 20260508215725 | 74 | 241 | 1.0 | 2.0 | 0.00 | 0.00 | 0.00 | 45 | 1008.6 |
| 20260508215222 | 75 | 205 | 1.0 | 5.0 | 0.00 | 0.00 | 0.00 | 44 | 1008.5 |
| 20260508214719 | 75 | 206 | 1.0 | 6.0 | 0.00 | 0.00 | 0.00 | 45 | 1008.7 |
| 20260508214216 | 76 | 206 | 3.0 | 6.0 | 0.00 | 0.00 | 0.00 | 43 | 1008.5 |
| 20260508213713 | 77 | 187 | 4.0 | 9.0 | 0.00 | 0.00 | 0.00 | 45 | 1008.5 |
| 20260508213209 | 78 | 158 | 3.0 | 6.0 | 0.00 | 0.00 | 0.00 | 42 | 1008.5 |
| 20260508212706 | 77 | 190 | 3.0 | 6.0 | 0.00 | 0.00 | 0.00 | 44 | 1008.3 |
| 20260508212202 | 77 | 207 | 5.0 | 9.0 | 0.00 | 0.00 | 0.00 | 44 | 1008.6 |
| 20260508211658 | 77 | 190 | 1.0 | 8.0 | 0.00 | 0.00 | 0.00 | 47 | 1008.4 |
| 20260508211154 | 77 | 226 | 0.0 | 6.0 | 0.00 | 0.00 | 0.00 | 48 | 1008.5 |
| 20260508210651 | 77 | 195 | 4.0 | 7.0 | 0.00 | 0.00 | 0.00 | 47 | 1008.6 |
| 20260508210148 | 76 | 185 | 0.0 | 3.0 | 0.00 | 0.00 | 0.00 | 48 | 1008.7 |
| 20260508205645 | 76 | 199 | 4.0 | 11.0 | 0.00 | 0.00 | 0.00 | 48 | 1009.0 |
| 20260508205142 | 77 | 211 | 5.0 | 6.0 | 0.00 | 0.00 | 0.00 | 50 | 1008.9 |
| 20260508204638 | 76 | 193 | 2.0 | 6.0 | 0.00 | 0.00 | 0.00 | 51 | 1009.3 |
| 20260508204134 | 76 | 186 | 3.0 | 9.0 | 0.00 | 0.00 | 0.00 | 49 | 1008.9 |
| 20260508203631 | 77 | 197 | 3.0 | 7.0 | 0.00 | 0.00 | 0.00 | 49 | 1009.3 |
| 20260508203127 | 77 | 179 | 0.0 | 3.0 | 0.00 | 0.00 | 0.00 | 49 | 1009.4 |
| 20260508202623 | 77 | 213 | 2.0 | 8.0 | 0.00 | 0.00 | 0.00 | 48 | 1009.3 |
| 20260508202120 | 77 | 163 | 4.0 | 8.0 | 0.00 | 0.00 | 0.00 | 46 | 1009.5 |
| 20260508201617 | 77 | 226 | 5.0 | 8.0 | 0.00 | 0.00 | 0.00 | 49 | 1009.5 |
| 20260508201114 | 76 | 206 | 0.0 | 7.0 | 0.00 | 0.00 | 0.00 | 50 | 1009.7 |
| 20260508200611 | 76 | 182 | 7.0 | 10.0 | 0.00 | 0.00 | 0.00 | 51 | 1009.8 |
| 20260508200106 | 76 | 179 | 3.0 | 8.0 | 0.00 | 0.00 | 0.00 | 49 | 1009.9 |
| 20260508195603 | 77 | 205 | 3.0 | 6.0 | 0.00 | 0.00 | 0.00 | 50 | 1010.3 |
| 20260508195059 | 76 | 200 | 1.0 | 8.0 | 0.00 | 0.00 | 0.00 | 51 | 1010.0 |
| 20260508194556 | 76 | 172 | 4.0 | 6.0 | 0.00 | 0.00 | 0.00 | 50 | 1010.3 |
| 20260508194054 | 76 | 161 | 2.0 | 9.0 | 0.00 | 0.00 | 0.00 | 55 | 1010.4 |
| 20260508193550 | 76 | 190 | 2.0 | 3.0 | 0.00 | 0.00 | 0.00 | 52 | 1010.4 |
| 20260508193047 | 75 | 220 | 3.0 | 5.0 | 0.00 | 0.00 | 0.00 | 53 | 1010.5 |
| 20260508192544 | 74 | 187 | 1.0 | 7.0 | 0.00 | 0.00 | 0.00 | 55 | 1010.3 |
| 20260508192041 | 75 | 186 | 3.0 | 6.0 | 0.00 | 0.00 | 0.00 | 54 | 1010.4 |
| 20260508191537 | 76 | 161 | 3.0 | 5.0 | 0.00 | 0.00 | 0.00 | 55 | 1010.5 |
| 20260508191034 | 75 | 182 | 3.0 | 7.0 | 0.00 | 0.00 | 0.00 | 54 | 1010.5 |
| 20260508190531 | 75 | 186 | 4.0 | 10.0 | 0.00 | 0.00 | 0.00 | 55 | 1010.6 |
| 20260508190027 | 75 | 199 | 0.0 | 3.0 | 0.00 | 0.00 | 0.00 | 58 | 1010.6 |
| 20260508185525 | 75 | 187 | 6.0 | 8.0 | 0.00 | 0.00 | 0.00 | 54 | 1010.8 |
| 20260508185023 | 74 | 177 | 3.0 | 3.0 | 0.00 | 0.00 | 0.00 | 55 | 1010.9 |
| 20260508184520 | 74 | 192 | 5.0 | 8.0 | 0.00 | 0.00 | 0.00 | 54 | 1010.8 |
| 20260508184017 | 73 | 72 | 2.0 | 7.0 | 0.00 | 0.00 | 0.00 | 54 | 1011.1 |
| 20260508183513 | 73 | 204 | 2.0 | 3.0 | 0.00 | 0.00 | 0.00 | 55 | 1010.9 |
| 20260508183009 | 72 | 193 | 0.0 | 7.0 | 0.00 | 0.00 | 0.00 | 55 | 1011.2 |
| 20260508182506 | 73 | 182 | 3.0 | 7.0 | 0.00 | 0.00 | 0.00 | 56 | 1011.4 |
| 20260508182001 | 72 | 173 | 3.0 | 8.0 | 0.00 | 0.00 | 0.00 | 54 | 1011.2 |
| 20260508181457 | 73 | 272 | 7.0 | 9.0 | 0.00 | 0.00 | 0.00 | 56 | 1011.4 |
| 20260508180955 | 73 | 183 | 3.0 | 6.0 | 0.00 | 0.00 | 0.00 | 55 | 1011.4 |
| 20260508180452 | 73 | 226 | 2.0 | 7.0 | 0.00 | 0.00 | 0.00 | 60 | 1011.6 |
| 20260508175948 | 72 | 174 | 2.0 | 7.0 | 0.00 | 0.00 | 0.00 | 57 | 1011.6 |
| 20260508175444 | 72 | 229 | 4.0 | 11.0 | 0.00 | 0.00 | 0.00 | 55 | 1012.0 |
| 20260508174942 | 73 | 183 | 2.0 | 5.0 | 0.00 | 0.00 | 0.00 | 61 | 1012.0 |
| 20260508174440 | 73 | 180 | 3.0 | 5.0 | 0.00 | 0.00 | 0.00 | 57 | 1012.1 |
| 20260508173936 | 72 | 189 | 3.0 | 5.0 | 0.00 | 0.00 | 0.00 | 60 | 1012.1 |
| 20260508173434 | 71 | 186 | 2.0 | 7.0 | 0.00 | 0.00 | 0.00 | 59 | 1012.2 |
| 20260508172929 | 72 | 145 | 3.0 | 3.0 | 0.00 | 0.00 | 0.00 | 59 | 1012.2 |
| 20260508172427 | 71 | 184 | 8.0 | 11.0 | 0.00 | 0.00 | 0.00 | 59 | 1012.4 |
| 20260508171923 | 71 | 218 | 3.0 | 5.0 | 0.00 | 0.00 | 0.00 | 59 | 1012.6 |
| 20260508171419 | 70 | 175 | 3.0 | 5.0 | 0.00 | 0.00 | 0.00 | 60 | 1012.7 |
| 20260508170916 | 71 | 213 | 2.0 | 9.0 | 0.00 | 0.00 | 0.00 | 60 | 1012.9 |
| 20260508170414 | 70 | 188 | 3.0 | 7.0 | 0.00 | 0.00 | 0.00 | 59 | 1013.0 |
| 20260508165910 | 71 | 238 | 6.0 | 8.0 | 0.00 | 0.00 | 0.00 | 57 | 1013.1 |
| 20260508165409 | 71 | 189 | 2.0 | 5.0 | 0.00 | 0.00 | 0.00 | 59 | 1012.9 |
| 20260508164909 | 71 | 262 | 3.0 | 7.0 | 0.00 | 0.00 | 0.00 | 60 | 1013.0 |
| 20260508164406 | 70 | 190 | 1.0 | 5.0 | 0.00 | 0.00 | 0.00 | 62 | 1013.0 |
| 20260508163903 | 69 | 195 | 1.0 | 7.0 | 0.00 | 0.00 | 0.00 | 60 | 1013.1 |
| 20260508163401 | 70 | 222 | 7.0 | 9.0 | 0.00 | 0.00 | 0.00 | 59 | 1013.2 |
| 20260508162856 | 69 | 205 | 1.0 | 5.0 | 0.00 | 0.00 | 0.00 | 61 | 1013.2 |
| 20260508162354 | 69 | 12 | 3.0 | 6.0 | 0.00 | 0.00 | 0.00 | 59 | 1013.2 |
| 20260508161851 | 69 | 172 | 4.0 | 9.0 | 0.00 | 0.00 | 0.00 | 61 | 1013.3 |
| 20260508161348 | 69 | 332 | 4.0 | 5.0 | 0.00 | 0.00 | 0.00 | 57 | 1013.2 |
| 20260508160845 | 69 | 215 | 3.0 | 11.0 | 0.00 | 0.00 | 0.00 | 61 | 1013.6 |
| 20260508160344 | 69 | 214 | 3.0 | 11.0 | 0.00 | 0.00 | 0.00 | 59 | 1013.3 |